SCP
0 0 0 0 0 0 0 0 0 0 0 0 0 0 0 0 0 0 0 0 0 0 0 0 0 0 0 0 0 0 0 0 0 0 0 0 0 0 0 0 0 0 0
0 0 0 0 0 0 0 0 0 0 0 0 0 0 0 0 0 0 0 0 0 0 0 0 0 0 0 0 0 0 0 0 0 0 0 0 0 0 0 0 0 0 0
0 0 0 0 0 0 0 0 0 0 0 0 0 0 0 0 0 0 0 0 0 0 0 0 0 0 0 0 0 0 0 0 0 0 0 0 0 0 0 0 0 0 0
0 0 0 0 0 0 0 0 0 0 0 0 0 0 0 0 0 0 0 0 0 0 0 0 0 0 0 0 0 0 0 0 0 0 0 0 0 0 0 0 0 0 0
0 0 0 0 0 0 0 0 0 0 0 0 0 0 0 0 0 0 0 0 0 0 0 0 0 0 0 0 0 0 0 0 0 0 0 0 0 0 0 0 0 0 0
0 0 0 0 0 0 0 0 0 0 0 0 0 0 0 0 0 0 0 0 0 0 0 0 0 0 0 0 0 0 0 0 0 0 0 0 0 0 0 0 0 0 0
0 0 0 0 0 0 0 0 0 0 0 0 0 0 0 0 0 0 0 0 0 0 0 0 0 0 0 0 0 0 0 0 0 0 0 0 0 0 0 0 0 0 0
0 0 0 0 0 0 0 0 0 0 0 0 0 0 0 0 0 0 0 0 0 0 0 0 0 0 0 0 0 0 0 0 0 0 0 0 0 0 0 0 0 0 0
0 0 0 0 0 0 0 0 0 0 0 0 0 0 0 0 0 0 0 0 0 0 0 0 0 0 0 0 0 0 0 0 0 0 0 0 0 0 0 0 0 0 0
0 0 0 0 0 0 0 0 0 0 0 0 0 0 0 0 0 0 0 0 0 0 0 0 0 0 0 0 0 0 0 0 0 0 0 0 0 0 0 0 0 0 0
0 0 0 0 0 0 0 0 0 0 0 0 0 0 0 0 0 0 0 0 0 0 0 0 0 0 0 0 0 0 0 0 0 0 0 0 0 0 0 0 0 0 0
0 0 0 0 0 0 0 0 0 0 0 0 0 0 0 0 0 0 0 0 0 0 0 0 0 0 0 0 0 0 0 0 0 0 0 0 0 0 0 0 0 0 0
0 0 0 0 0 0 0 0 0 0 0 0 0 0 0 0 0 0 0 0 0 0 0 0 0 0 0 0 0 0 0 0 0 0 0 0 0 0 0 0 0 0 0
0 0 0 0 0 0 0 0 0 0 0 0 0 0 0 0 0 0 0 0 0 0 0 0 0 0 0 0 0 0 0 0 0 0 0 0 0 0 0 0 0 0 0
0 0 0 0 0 0 0 0 0 0 0 0 0 0 0 0 0 0 0 0 0 0 0 0 0 0 0 0 0 0 0 0 0 0 0 0 0 0 0 0 0 0 0
0 0 0 0 0 0 0 0 0 0 0 0 0 0 0 0 0 0 0 0 0 0 0 0 0 0 0 0 0 0 0 0 0 0 0 0 0 0 0 0 0 0 0
0 0 0 0 0 0 0 0 0 0 0 0 0 0 0 0 0 0 0 0 0 0 0 0 0 0 0 0 0 0 0 0 0 0 0 0 0 0 0 0 0 0 0
0 0 0 0 0 0 0 0 0 0 0 0 0 0 0 0 0 0 0 0 0 0 0 0 0 0 0 0 0 0 0 0 0 0 0 0 0 0 0 0 0 0 0
0 0 0 0 0 0 0 0 0 0 0 0 0 0 0 0 0 0 0 0 0 0 0 0 0 0 0 0 0 0 0 0 0 0 0 0 0 0 0 0 0 0 0
0 0 0 0 0 0 0 0 0 0 0 0 0 0 0 0 0 0 0 0 0 0 0 0 0 0 0 0 0 0 0 0 0 0 0 0 0 0 0 0 0 0 0
0 0 0 0 0 0 0 0 0 0 0 0 0 0 0 0 0 0 0 0 0 0 0 0 0 0 0 0 0 0 0 0 0 0 0 0 0 0 0 0 0 0 0
0 0 0 0 0 0 0 0 0 0 0 0 0 0 0 0 0 0 0 0 0 0 0 0 0 0 0 0 0 0 0 0 0 0 0 0 0 0 0 0 0 0 0
0 0 0 0 0 0 0 0 0 0 0 0 0 0 0 0 0 0 0 0 0 0 0 0 0 0 0 0 0 0 0 0 0 0 0 0 0 0 0 0 0 0 0
0 0 0 0 0 0 0 0 0 0 0 0 0 0 0 0 0 0 0 0 0 0 0 0 0 0 0 0 0 0 0 0 0 0 0 0 0 0 0 0 0 0 0
0 0 0 0 0 0 0 0 0 0 0 0 0 0 0 0 0 0 0 0 0 0 0 0 0 0 0 0 0 0 0 0 0 0 0 0 0 0 0 0 0 0 0
0 0 0 0 0 0 0 0 0 0 0 0 0 0 0 0 0 0 0 0 0 0 0 0 0 0 0 0 0 0 0 0 0 0 0 0 0 0 0 0 0 0 0
Wind_Speed
4 4 3 4 4 3 4 4 5 5 6 6 5 6 6 6 5 5 3 8 9 9 9 9 9 8 8 8 7 7 7 7 8 7 7 7 7 8 8 8 8 8 8
3 3 4 4 4 3 3 4 4 5 4 4 6 5 5 5 5 5 5 6 10 10 9 8 8 8 8 8 8 7 7 8 8 8 8 8 8 8 7 7 7 8 8
3 3 3 3 3 3 4 4 5 4 5 5 5 5 5 5 5 5 5 5 5 8 9 9 8 7 8 8 8 7 8 8 9 9 8 8 8 8 8 8 8 7 8
3 3 3 3 3 3 3 4 4 4 4 4 4 4 4 4 6 5 5 5 5 5 7 10 10 9 8 8 8 8 8 8 8 8 8 7 7 7 8 8 8 8 8
3 3 3 2 3 3 3 3 4 3 3 4 4 4 4 4 5 6 6 6 5 6 5 8 10 11 9 8 9 8 7 8 8 8 8 7 7 7 7 7 7 8 8
3 3 3 3 3 3 3 3 4 4 3 3 4 5 4 4 4 5 5 5 5 6 6 6 5 7 10 9 9 9 8 8 8 8 8 8 8 7 7 7 7 7 8
3 3 3 3 3 3 3 3 3 4 3 2 3 3 4 4 5 4 4 4 6 6 6 6 5 4 4 9 9 9 8 8 8 8 8 8 7 7 7 6 7 7 7
2 2 2 2 2 3 3 3 3 2 2 2 2 2 3 4 4 5 4 4 5 5 6 6 6 5 4 3 6 9 9 7 7 7 7 7 7 7 7 7 7 7 7
2 2 2 2 2 2 2 2 2 3 1 2 2 2 2 0 2 3 4 4 5 4 4 4 5 5 5 4 4 6 8 7 6 6 6 6 6 6 6 6 6 6 6
1 2 2 2 2 2 2 1 2 2 2 1 1 2 2 2 2 1 3 3 4 4 4 4 4 4 5 4 4 7 7 6 6 6 6 6 7 7 6 6 5 6 6
1 2 2 2 2 1 2 1 2 2 2 2 1 1 2 2 2 2 1 3 3 2 2 3 3 3 4 4 3 5 7 6 6 7 7 7 7 7 7 6 6 6 6
1 1 1 1 1 1 1 1 1 2 1 2 1 1 2 2 1 2 1 1 1 2 2 2 2 2 3 3 4 7 7 7 7 7 7 7 7 7 6 6 6 6 5
0 0 1 1 1 1 1 1 2 1 1 2 1 1 1 1 2 2 2 1 0 2 2 2 1 2 2 2 3 5 6 6 6 6 6 6 6 6 6 5 5 5 5
2 2 1 1 1 1 2 2 1 1 1 1 1 1 1 1 2 2 3 3 1 1 2 2 1 1 1 1 3 4 3 5 6 6 6 6 6 6 6 6 5 6 6
2 2 2 2 1 2 2 2 1 1 1 1 1 1 1 0 1 1 2 3 3 1 1 2 1 1 1 1 2 2 1 4 5 5 5 5 6 5 6 5 5 5 5
2 2 2 2 2 2 2 2 1 1 2 1 1 1 0 0 0 1 1 1 2 3 2 1 1 1 1 1 2 2 1 3 3 4 4 4 4 4 4 5 4 4 4
3 3 3 2 2 2 2 2 2 1 2 1 0 1 1 0 1 1 1 1 1 2 2 1 1 0 0 1 1 2 1 1 1 3 3 4 4 4 4 4 4 4 4
3 3 3 3 3 2 2 3 2 2 2 1 1 1 1 0 0 1 1 2 2 2 3 2 1 0 0 0 1 1 2 1 1 3 3 3 4 4 4 4 4 4 4
3 3 3 3 3 2 2 2 3 2 2 2 2 1 1 1 1 1 1 2 1 1 2 2 1 0 0 0 1 2 2 2 1 2 2 2 3 3 3 3 3 3 3
3 3 3 3 3 3 3 3 2 2 2 1 1 2 2 2 3 2 2 2 2 2 2 2 1 1 0 0 1 1 1 1 1 2 2 2 2 3 2 2 2 2 2
3 3 3 2 2 2 3 3 3 3 2 2 1 2 2 2 3 3 2 2 3 2 2 2 1 1 1 1 1 1 1 0 1 1 1 1 1 1 1 2 1 1 1
2 3 3 3 2 2 3 5 4 3 3 3 2 2 2 2 3 2 2 4 4 4 4 3 2 2 3 2 2 2 2 1 1 1 0 1 0 1 1 1 1 0 0
2 2 3 3 3 3 4 5 5 3 3 3 3 2 2 2 1 1 2 3 4 5 5 4 4 5 4 4 3 3 3 3 3 2 1 1 1 1 2 1 1 1 1
3 3 3 3 3 3 3 4 4 3 2 2 3 3 3 2 2 2 1 1 2 2 4 4 4 5 4 4 4 4 4 2 1 1 2 2 1 2 1 1 2 2 2
3 3 3 3 3 3 3 3 4 2 2 2 2 2 3 3 4 3 2 1 1 2 2 3 4 3 4 5 5 3 2 2 2 2 2 2 2 1 1 1 2 2 2
3 2 2 3 3 3 3 3 4 2 2 2 2 2 4 4 4 4 3 3 2 3 1 1 1 1 1 3 5 4 4 3 2 2 3 3 2 1 1 1 1 1 1
Wind_Direction
52 51 51 49 48 49 57 59 59 57 55 54 55 55 49 43 37 31 36 51 55 58 64 70 69 76 81 80 79 86 85 87 84 81 81 81 79 77 77 76 75 72 72
64 62 58 52 47 49 56 65 67 65 58 56 53 48 45 39 38 36 33 38 48 54 56 62 68 76 72 72 71 78 81 81 80 77 75 75 74 72 75 77 77 75 75
71 74 68 58 48 50 59 63 62 61 60 57 50 45 43 38 38 37 33 30 30 41 47 53 61 67 70 71 71 75 76 77 76 75 74 74 70 69 74 76 77 78 76
78 79 74 65 56 59 61 65 60 64 58 56 50 39 39 38 37 39 38 33 29 28 32 43 48 56 63 68 68 72 75 78 77 75 74 73 70 70 74 74 77 76 77
80 84 77 69 68 66 59 70 62 66 67 61 58 46 37 37 32 38 39 35 34 34 30 34 40 45 49 56 62 66 74 73 73 74 74 74 71 71 74 74 74 75 73
79 82 78 69 73 72 61 64 71 60 60 56 64 53 38 33 36 36 31 31 33 35 35 35 30 31 40 47 57 61 65 66 66 69 72 71 70 69 74 75 75 76 73
85 86 84 75 75 76 77 79 80 69 50 36 58 43 30 35 39 33 27 31 32 31 34 34 32 29 28 35 47 54 57 63 64 64 65 67 70 71 74 75 74 77 75
83 98 99 94 87 85 75 74 82 79 46 39 75 72 26 12 15 24 26 34 28 28 34 33 30 30 30 27 33 43 46 53 62 64 63 62 64 67 69 70 71 72 72
81 88 101 103 100 103 107 98 101 104 90 32 58 109 114 157 343 0 21 29 27 28 23 23 29 25 29 31 24 34 42 46 56 60 60 65 69 69 69 69 70 71 70
80 88 101 103 106 105 115 122 110 118 123 92 40 54 106 144 132 7 352 5 19 27 20 22 20 21 26 27 29 36 42 42 50 59 59 63 67 70 73 73 72 73 68
63 84 102 106 113 117 127 116 101 108 117 127 124 108 82 70 90 124 349 339 355 1 12 14 13 18 23 22 21 31 36 40 49 55 58 60 66 69 70 71 71 71 67
31 55 98 106 119 130 149 154 139 134 127 119 124 135 145 142 154 139 161 289 333 331 357 13 15 10 20 20 22 30 33 40 47 51 51 51 58 63 65 68 65 65 61
165 223 131 135 137 158 164 146 131 139 144 145 162 169 171 180 161 149 142 162 349 324 349 3 355 4 18 21 13 23 29 39 43 47 48 47 50 53 55 61 59 57 53
198 189 169 162 161 148 137 125 115 146 130 139 155 166 153 179 165 161 157 148 107 352 354 323 341 357 0 9 15 23 23 36 43 46 50 48 47 46 44 46 46 44 43
185 166 157 149 143 132 131 127 122 144 120 122 149 145 135 192 164 167 154 153 149 157 290 289 310 328 342 15 17 32 25 43 47 46 48 47 45 44 40 39 42 42 43
178 158 159 153 140 133 134 128 128 137 117 117 135 122 124 236 166 158 160 153 153 156 196 251 249 280 329 26 28 28 41 40 45 54 52 50 51 48 43 40 48 49 46
178 171 172 162 155 149 143 134 140 130 128 125 125 156 229 197 165 154 144 137 145 147 174 251 253 311 23 41 14 24 35 31 31 56 57 56 56 53 47 45 48 49 49
186 177 166 162 165 162 155 155 166 159 162 176 209 190 242 170 172 178 160 174 182 179 168 201 225 256 284 332 39 38 32 37 33 50 53 54 55 51 48 45 45 48 47
177 170 164 170 175 174 173 175 173 176 183 192 211 204 222 178 226 217 183 191 193 175 161 169 201 190 35 52 60 43 33 13 15 32 41 46 53 50 48 43 45 49 47
177 180 179 182 181 177 181 180 176 184 190 204 216 214 213 210 210 205 199 199 178 154 147 157 180 185 180 139 116 108 29 15 357 6 18 31 35 33 28 30 46 53 55
185 180 177 177 178 182 188 181 185 190 191 202 219 232 235 237 224 206 199 189 171 167 163 167 181 170 199 180 197 179 174 5 333 340 356 352 4 6 346 338 352 55 57
178 166 175 179 189 211 209 196 186 187 189 195 215 237 245 252 252 245 231 201 187 182 183 180 190 201 219 209 177 173 161 167 274 276 125 317 13 301 293 282 322 329 71
169 173 186 184 203 233 227 211 199 182 187 199 211 216 231 244 252 242 253 240 224 216 199 186 192 209 209 205 181 183 191 193 217 215 156 259 271 261 273 287 273 259 256
174 189 197 197 204 232 227 217 201 184 189 210 218 212 212 228 227 209 208 235 237 237 222 208 206 216 213 198 188 193 191 175 197 234 174 213 240 245 275 275 274 245 228
186 195 197 197 202 234 233 205 173 173 195 231 240 229 215 218 231 214 182 209 259 278 259 223 222 221 207 186 166 139 153 167 219 236 197 189 214 240 265 270 271 261 235
191 190 196 202 206 222 227 202 173 175 202 233 249 250 239 231 227 216 203 192 224 255 258 258 250 253 219 191 181 183 185 189 196 224 202 185 198 184 258 268 262 269 267